Location: Eymir
(36.7333°N, 29.7833°E)
Time: 05:02:59
(UTC+00:00)

CUTE 1.7 + AOD 2 - Pass Details

Date: 22 May 2026
Orbit: 531 x 545 km, 97.8° (Epoch: 8 June)

Event Time Altitude Azimuth Distance (km) Brightness Sun altitude
Rises 02:00:56 0° 22° (NNE) 2,679 ? -9.1°
Reaches altitude 10° 02:03:11 10° 32° (NNE) 1,785 ? -8.7°
Maximum altitude 02:06:43 34° 98° (E) 886 ? -8.1°
Drops below altitude 10° 02:10:14 10° 165° (SSE) 1,775 ? -7.5°
Sets 02:12:28 0° 174° (S) 2,662 ? -7.1°
